Regional Weather Roundup
Issued by NWS

Home | Current Version | Previous Version | Graphics & Text | Print | Product List | Glossary On
Versions: 1 2 3 4 5 6 7 8 9 10 11 12 13 14 15 16 17 18 19 20 21 22 23 24 25 26 27 28 29 30 31 32 33 34 35 36 37 38 39 40 41 42 43 44 45 46 47 48 49 50
962
ASUS43 KFSD 201402
RWRSD

WEATHER ROUNDUP FOR SOUTH DAKOTA
NATIONAL WEATHER SERVICE SIOUX FALLS SD
800 AM CST SAT JAN 20 2018

NOTE: "FAIR" INDICATES FEW OR NO CLOUDS BELOW 12,000 FEET WITH NO
SIGNIFICANT WEATHER AND/OR OBSTRUCTIONS TO VISIBILITY.


SDZ001>005-009-010-012>017-201500-
NORTHWEST AND NORTH CENTRAL SOUTH DAKOTA

CITY           SKY/WX    TMP DP  RH WIND       PRES   REMARKS
BUFFALO          N/A     33  29  85 NW8       29.79R WCI  26
FAITH            N/A     34  34 100 NW3       29.85R
MOBRIDGE       CLOUDY    34  30  85 CALM      29.84R
$$

SDZ012>016-024>037-041>051-057-063-072>074-201500-
SOUTHWEST AND SOUTH CENTRAL SOUTH DAKOTA

CITY           SKY/WX    TMP DP  RH WIND       PRES   REMARKS
RAPID CTY ARPT CLOUDY    33  31  92 NW13      29.86S WCI  24
PIERRE         MOCLDY    31  30  96 W8        29.85R WCI  23
CUSTER         CLOUDY    29  26  89 NE6       29.80R WCI  23
ELLSWORTH AFB  CLOUDY    33  33 100 NW7       29.86R WCI  27
PHILIP         MOCLDY    29  29 100 W5        29.88R WCI  24
PINE RIDGE     MOCLDY    25  23  92 CALM      29.86R
SPEARFISH        N/A     32  28  86 SW7       29.87F WCI  26
WINNER         FAIR      30  27  88 W6        29.86R WCI  24
$$

SDZ004>011-016>023-039-040-201500-
NORTHEAST SOUTH DAKOTA

CITY           SKY/WX    TMP DP  RH WIND       PRES   REMARKS
ABERDEEN       CLOUDY    29  28  96 CALM      29.86R
WATERTOWN      CLOUDY    28  27  96 CALM      29.81R
BROOKINGS      CLOUDY    22  21  96 CALM      29.83S
SISSETON         N/A     37  29  72 NW9       29.81R
$$

SDZ017-020-022-023-036>040-048>070-201500-
SOUTHEAST SOUTH DAKOTA

CITY           SKY/WX    TMP DP  RH WIND       PRES   REMARKS
SIOUX FALLS    CLOUDY    23  21  92 CALM      29.84S
HURON          MOCLDY    26  24  92 CALM      29.85R
CHAMBERLAIN    CLEAR     27  27 100 CALM      29.86R
MITCHELL       MOCLDY    25  24  96 W3        29.85S
YANKTON        CLOUDY    27  26  96 NW5       29.85R WCI  22
$$

ABBREVIATIONS USED IN REMARKS
   TC - TEMPERATURE IN CELSIUS
  WCI - WIND CHILL INDEX
   HX - HEAT INDEX
  VSB - VISIBILITY





USA.gov is the U.S. government's official web portal to all federal, state and local government web resources and services.